FW7781 Weather Reports


Display with metric or nautical units.
time (UTC)temp
F
wind
direction
speed
MPH
gust
MPH
rain 1hr
in
rain 24hr
in
rain mn
in
humidity
%
barometer
mb
20230202013913 45 0.0 0.0 0.00 0.00 0.00 96 998.6
20230202012912 45 0.0 0.0 0.00 0.00 0.00 96 998.7
20230202011912 45 0.0 0.0 0.00 0.00 0.00 96 998.3
20230202010913 45 0.0 0.0 0.00 0.00 0.00 97 998.4
20230202005913 46 0.0 0.0 0.00 0.00 0.00 96 998.4
20230202004913 45 0.0 0.0 0.00 0.00 0.00 96 998.0
20230202003913 45 0.0 0.0 0.00 0.00 0.00 95 998.0
20230202002912 45 0.0 0.0 0.00 0.00 0.00 95 998.1
20230202001912 45 0.0 0.0 0.00 0.00 0.00 94 998.2
20230202000914 46 0.0 0.0 0.00 0.00 0.00 91 998.4
20230201235915 46 0.0 0.0 0.00 0.00 0.00 88 998.7
20230201234915 46 0.0 0.0 0.00 0.00 0.00 85 999.1
20230201233913 47 0.0 0.0 0.00 0.00 0.00 82 999.3
20230201232913 47 0.0 0.0 0.00 0.00 0.00 77 999.7
20230201231914 47 0.0 0.0 0.00 0.00 0.00 77 999.8
20230201230913 47 0.0 0.0 0.00 0.00 0.00 77 1000.1
20230201225913 47 0.0 0.0 0.00 0.00 0.00 78 1000.3
20230201224914 47 0.0 0.0 0.00 0.00 0.00 79 1000.3
20230201223912 46 0.0 0.0 0.00 0.00 0.00 80 1000.5
20230201222913 47 0.0 0.0 0.00 0.00 0.00 79 1000.7
20230201221914 46 0.0 0.0 0.00 0.00 0.00 81 1001.0
20230201220914 46 0.0 0.0 0.00 0.00 0.00 84 1001.0
20230201215914 46 0.0 0.0 0.00 0.00 0.00 84 1001.2
20230201214913 46 0.0 0.0 0.00 0.00 0.00 85 1001.1
20230201213913 46 0.0 0.0 0.00 0.00 0.00 85 1001.4
20230201212912 45 0.0 0.0 0.00 0.00 0.00 86 1001.5
20230201211914 45 0.0 0.0 0.00 0.00 0.00 86 1001.4
20230201210914 46 0.0 0.0 0.00 0.00 0.00 87 1001.0
20230201205912 46 0.0 0.0 0.00 0.00 0.00 87 1001.0
20230201204916 46 0.0 0.0 0.00 0.00 0.00 88 1001.2
20230201203912 46 0.0 0.0 0.00 0.00 0.00 88 1001.3
20230201202911 46 0.0 0.0 0.00 0.00 0.00 88 1001.3
20230201201912 46 0.0 0.0 0.00 0.00 0.00 88 1001.4
20230201200912 46 0.0 0.0 0.00 0.00 0.00 88 1001.3
20230201195913 46 0.0 0.0 0.00 0.00 0.00 89 1001.3
20230201194915 46 0.0 0.0 0.00 0.00 0.00 89 1001.2
20230201193913 46 0.0 0.0 0.00 0.00 0.00 90 1001.1
20230201192912 46 0.0 0.0 0.00 0.00 0.00 90 1001.2
20230201191914 46 0.0 0.0 0.00 0.00 0.00 90 1001.3
20230201190912 45 0.0 0.0 0.00 0.00 0.00 91 1001.2
20230201185913 45 0.0 0.0 0.00 0.00 0.00 90 1001.2
20230201184913 45 0.0 0.0 0.00 0.00 0.00 90 1001.2
20230201183912 46 0.0 0.0 0.00 0.00 0.00 89 1001.1
20230201182912 46 0.0 0.0 0.00 0.00 0.00 90 1001.2
20230201181912 46 0.0 0.0 0.00 0.00 0.00 89 1001.3
20230201180913 46 0.0 0.0 0.00 0.00 0.00 89 1001.3
20230201175913 46 0.0 0.0 0.00 0.00 0.00 89 1001.3
20230201174913 46 0.0 0.0 0.00 0.00 0.00 91 1001.3
20230201173914 45 0.0 0.0 0.00 0.00 0.00 91 1001.3
20230201172912 45 0.0 0.0 0.00 0.00 0.00 91 1001.2
20230201171912 46 0.0 0.0 0.00 0.00 0.00 92 1001.2
20230201170914 46 0.0 0.0 0.00 0.00 0.00 93 1001.3
20230201165914 46 0.0 0.0 0.00 0.00 0.00 92 1001.3
20230201164913 46 0.0 0.0 0.00 0.00 0.00 93 1001.2
20230201163913 46 0.0 0.0 0.00 0.00 0.00 92 1001.1
20230201162914 46 0.0 0.0 0.00 0.00 0.00 92 1001.1
20230201161914 47 0.0 0.0 0.00 0.00 0.00 92 1001.0
20230201160913 47 0.0 0.0 0.00 0.00 0.00 93 1001.1
20230201155912 47 0.0 0.0 0.00 0.00 0.00 90 1001.0
20230201154914 47 0.0 0.0 0.00 0.00 0.00 89 1000.9
20230201153914 47 0.0 0.0 0.00 0.00 0.00 91 1001.0
20230201152914 47 0.0 0.0 0.00 0.00 0.00 92 1001.1
20230201151914 47 0.0 0.0 0.00 0.00 0.00 91 1001.1
20230201150912 48 0.0 0.0 0.00 0.00 0.00 90 1001.2
20230201145913 47 0.0 0.0 0.00 0.00 0.00 89 1001.3
20230201144913 47 0.0 0.0 0.00 0.00 0.00 89 1001.4
20230201143912 47 0.0 0.0 0.00 0.00 0.00 91 1001.3
20230201142913 47 0.0 0.0 0.00 0.00 0.00 90 1001.5
20230201141915 47 0.0 0.0 0.00 0.00 0.00 89 1001.5
20230201140914 48 0.0 0.0 0.00 0.00 0.00 88 1001.5
20230201135913 47 0.0 0.0 0.00 0.00 0.00 90 1001.4
20230201134912 49 0.0 0.0 0.00 0.00 0.00 86 1001.1
20230201133913 42 0.0 0.0 0.00 0.00 0.00 10 1001.8
20230201132913 42 0.0 0.0 0.00 0.00 0.00 10 1001.8
20230201131914 42 0.0 0.0 0.00 0.00 0.00 10 1001.9
20230201130913 42 0.0 0.0 0.00 0.00 0.00 10 1001.9
20230201125912 43 0.0 0.0 0.00 0.00 0.00 10 1002.2
20230201124914 43 0.0 0.0 0.00 0.00 0.00 10 1002.0
20230201123912 43 0.0 0.0 0.00 0.00 0.00 10 1002.0
20230201122913 43 0.0 0.0 0.00 0.00 0.00 10 1002.0
20230201121912 43 0.0 0.0 0.00 0.00 0.00 98 1002.3
20230201120912 44 0.0 0.0 0.00 0.00 0.00 10 1002.3
20230201115913 44 0.0 0.0 0.00 0.00 0.00 10 1002.2
20230201114912 44 0.0 0.0 0.00 0.00 0.00 10 1002.2
20230201113912 44 0.0 0.0 0.00 0.00 0.00 98 1002.2
20230201112913 45 0.0 0.0 0.00 0.00 0.00 93 1002.2
20230201111913 45 0.0 0.0 0.00 0.00 0.00 91 1002.1
20230201110913 45 0.0 0.0 0.00 0.00 0.00 87 1002.0
20230201105913 45 0.0 0.0 0.00 0.00 0.00 85 1002.1
20230201104916 45 0.0 0.0 0.00 0.00 0.00 85 1002.1
20230201103912 45 0.0 0.0 0.00 0.00 0.00 86 1002.1
20230201102912 44 0.0 0.0 0.00 0.00 0.00 86 1002.2
20230201101912 44 0.0 0.0 0.00 0.00 0.00 85 1002.2
20230201100912 45 0.0 0.0 0.00 0.00 0.00 83 1002.3
20230201095913 45 0.0 0.0 0.00 0.00 0.00 83 1002.2
20230201094912 45 0.0 0.0 0.00 0.00 0.00 84 1001.9
20230201093913 44 0.0 0.0 0.00 0.00 0.00 86 1001.9
20230201092912 44 0.0 0.0 0.00 0.00 0.00 87 1002.1
20230201091914 44 0.0 0.0 0.00 0.00 0.00 88 1002.1
20230201090914 44 0.0 0.0 0.00 0.00 0.00 88 1002.0
20230201085912 44 0.0 0.0 0.00 0.00 0.00 89 1002.1
20230201084914 44 0.0 0.0 0.00 0.00 0.00 92 1002.1
20230201083913 44 0.0 0.0 0.00 0.00 0.00 91 1002.0
20230201082915 44 0.0 0.0 0.00 0.00 0.00 91 1002.0
20230201081914 44 0.0 0.0 0.00 0.00 0.00 93 1002.1
20230201080913 44 0.0 0.0 0.00 0.00 0.00 92 1002.1
20230201075914 43 0.0 0.0 0.00 0.00 0.00 93 1002.2
20230201074912 43 0.0 0.0 0.00 0.00 0.00 93 1002.2
20230201073914 43 0.0 0.0 0.00 0.00 0.00 92 1002.2
20230201072937 43 0.0 0.0 0.00 0.00 0.00 92 1002.2
20230201071911 43 0.0 0.0 0.00 0.00 0.00 92 1002.4
20230201070913 43 0.0 0.0 0.00 0.00 0.00 93 1002.3
20230201065912 43 0.0 0.0 0.00 0.00 0.00 93 1002.3
20230201064913 43 0.0 0.0 0.00 0.00 0.00 92 1002.3
20230201063913 43 0.0 0.0 0.00 0.00 0.00 93 1002.3
20230201062912 42 0.0 0.0 0.00 0.00 0.00 94 1002.4
20230201061914 42 0.0 0.0 0.00 0.00 0.00 95 1002.4
20230201060914 41 0.0 0.0 0.00 0.00 0.00 96 1002.4
20230201055912 41 0.0 0.0 0.00 0.00 0.00 97 1002.6
20230201054913 41 0.0 0.0 0.00 0.00 0.00 96 1002.6
20230201053914 41 0.0 0.0 0.00 0.00 0.00 95 1002.5
20230201052913 41 0.0 0.0 0.00 0.00 0.00 94 1002.7
20230201051913 42 0.0 0.0 0.00 0.00 0.00 92 1002.7
20230201050914 42 0.0 0.0 0.00 0.00 0.00 91 1002.6
20230201045913 42 0.0 0.0 0.00 0.00 0.00 91 1002.6
20230201044915 42 0.0 0.0 0.00 0.00 0.00 91 1002.8
20230201043914 42 0.0 0.0 0.00 0.00 0.00 91 1003.0
20230201042914 42 0.0 0.0 0.00 0.00 0.00 90 1003.0
20230201041916 42 0.0 0.0 0.00 0.00 0.00 90 1002.9
20230201040914 42 0.0 0.0 0.00 0.00 0.00 89 1003.1
20230201035914 43 0.0 0.0 0.00 0.00 0.00 89 1003.1
20230201034913 43 0.0 0.0 0.00 0.00 0.00 89 1003.0
20230201033913 43 0.0 0.0 0.00 0.00 0.00 89 1003.2
20230201032912 43 0.0 0.0 0.00 0.00 0.00 90 1003.3
20230201031912 43 0.0 0.0 0.00 0.00 0.00 90 1003.3
20230201030912 43 0.0 0.0 0.00 0.00 0.00 90 1003.4
20230201025913 42 0.0 0.0 0.00 0.00 0.00 90 1003.5
20230201024913 42 0.0 0.0 0.00 0.00 0.00 90 1003.3
20230201023912 42 0.0 0.0 0.00 0.00 0.00 91 1003.3
20230201022945 42 0.0 0.0 0.00 0.00 0.00 91 1003.4
20230201021913 42 0.0 0.0 0.00 0.00 0.00 92 1003.4
20230201020912 42 0.0 0.0 0.00 0.00 0.00 92 1003.4
20230201015916 42 0.0 0.0 0.00 0.00 0.00 92 1003.4
20230201014913 42 0.0 0.0 0.00 0.00 0.00 92 1003.3